Location: Allie Creek
(37.5926°N, 89.8526°W)
Time: 05:21:36
(UTC+00:00)

Cosmos 1048 Rocket - Pass Details

Date: 26 September 2023
Orbit: 742 x 789 km, 74.0° (Epoch: 29 November)

Event Time Altitude Azimuth Distance (km) Brightness Sun altitude
Rises 10:33:35 0° 341° (NNW) 3,260 7.2 -16.0°
Reaches altitude 10° 10:35:59 10° 341° (NNW) 2,322 6.4 -15.5°
Maximum altitude 10:41:16 89° 255° (WSW) 769 4.0 -14.5°
Drops below altitude 10° 10:46:26 10° 164° (SSE) 2,275 6.5 -13.5°
Sets 10:48:46 0° 164° (SSE) 3,189 7.3 -13.0°
